Terminal Aerodrome Forecast
Issued by NWS

Home | Current Version | Previous Version | Graphics & Text | Print | Product List | Glossary On
Versions: 1 2 3 4 5 6 7 8 9 10 11 12 13 14 15 16 17 18 19 20 21 22 23 24 25 26 27 28 29 30 31 32 33
358
FTUS43 KABR 032149 AAD
TAFATY
TAF AMD
KATY 032149Z 0322/0418 16010KT 1SM -SN BR OVC009
     FM032215 16012KT P6SM OVC008
     FM041100 25010KT P6SM OVC035
     FM041700 27012KT P6SM BKN100=

USA.gov is the U.S. government's official web portal to all federal, state and local government web resources and services.